Flag for Switzerland Weather past 2 weeks in Thun, Bern, Switzerland

Now
66 °F

Passing clouds.


Feels Like: 66 °F
Forecast: 44 / 71 °F
Wind: 9 mph from Northeast

Location: Bern / Belp

Current Time: Oct 2, 2014 at 4:53:19 PM

Latest Report: Oct 2, 2014 at 4:20 PM


Visibility: N/A

Pressure: 30.27 "Hg

Humidity: 64%

Dew point: 54 °F

Location of ThunLocation

Historic Weather in Thun — Graph

°F

Thun temperature yesterday

Maximum temperature yesterday: 70 °F (at 2:50 PM)
Minimum temperature yesterday: 50 °F (at 11:20 PM)
Average temperature yesterday: 59 °F

Past Weeks' High & Low Weather Summary

 TemperatureHumidityPressure
High75 °F (Sep 17, 3:50 PM)100% (Sep 17, 10:20 PM)30.36 "Hg (Sep 17, 10:20 PM)
Low39 °F (Sep 23, 7:20 AM)45% (Sep 23, 3:20 PM)29.86 "Hg (Sep 17, 3:20 PM)
Average57 °F85%30.16 "Hg
* Reported Sep 17 3:20 PM — Oct 2 3:50 PM, Thun, Weather by CustomWeather, © 2014

Note: Actual official high and low records may vary slightly from our data, if they occured in-between our weather recording intervals... More about our weather records

Advertising

Thun weather history for previous 24 hours

 ConditionsComfort  
Time TempWeatherWind HumidityBarometerVisibility
3:50 PM
Oct 2
66 °FPassing clouds.6 mph64%30.27 "HgN/A
3:20 PM66 °FPassing clouds.6 mph64%30.27 "HgN/A
2:50 PM68 °FScattered clouds.6 mph64%30.30 "HgN/A
2:20 PM68 °FBroken clouds.3 mph64%30.30 "HgN/A
1:50 PM64 °FScattered clouds.5 mph73%30.30 "HgN/A
1:20 PM66 °FScattered clouds.8 mph73%30.30 "HgN/A
12:50 PM64 °FScattered clouds.5 mph73%30.33 "HgN/A
12:20 PM63 °FPartly sunny.5 mph77%30.33 "HgN/A
11:50 AM63 °FBroken clouds.2 mph77%30.33 "HgN/A
11:20 AM61 °FBroken clouds.No wind83%30.33 "HgN/A
10:50 AM57 °FScattered clouds.No wind88%30.33 "Hg5 mi
10:20 AM57 °FScattered clouds.1 mph88%30.36 "Hg5 mi
9:50 AM54 °FScattered clouds.1 mph100%30.36 "Hg4 mi
9:20 AM50 °FScattered clouds.1 mph100%30.36 "Hg4 mi
8:50 AM50 °FScattered clouds.1 mph100%30.33 "Hg4 mi
8:20 AM48 °FPassing clouds.2 mph100%30.33 "Hg4 mi
7:50 AM48 °FPassing clouds.2 mph100%30.33 "Hg4 mi
7:20 AM45 °FFog.3 mph100%30.33 "Hg2 mi
6:50 AM46 °FFog.2 mph93%30.33 "Hg2 mi
6:20 AM45 °FFog.1 mph100%30.33 "Hg2 mi
5:50 AM45 °FFog.1 mph100%30.33 "Hg2 mi
5:20 AM46 °FFog.1 mph93%30.33 "Hg5 mi
4:50 AM46 °FFog.No wind100%30.33 "Hg1 mi
4:20 AM48 °FFog.1 mph100%30.33 "Hg2 mi
3:50 AM46 °FFog.1 mph100%30.33 "Hg2 mi
3:20 AM48 °FCool.1 mph94%30.33 "Hg4 mi
2:50 AM48 °FClear.1 mph100%30.33 "Hg10 mi
2:20 AM48 °FClear.2 mph100%30.33 "Hg10 mi
1:50 AM48 °FCool.1 mph100%30.33 "Hg3 mi
1:20 AM50 °FCool.3 mph100%30.33 "HgN/A
12:50 AM50 °FPassing clouds.1 mph100%30.36 "HgN/A
12:20 AM50 °FCool.1 mph100%30.33 "Hg6 mi
11:50 PM
Oct 1
50 °FCool.2 mph100%30.33 "Hg5 mi
11:20 PM50 °FClear.2 mph100%30.36 "Hg10 mi
10:50 PM52 °FFog.1 mph94%30.33 "Hg1 mi
10:20 PM52 °FFog.1 mph100%30.33 "Hg6 mi
9:50 PM52 °FFog.1 mph100%30.33 "Hg6 mi
9:20 PM55 °FFog.1 mph94%30.33 "Hg6 mi
8:50 PM55 °FPassing clouds.2 mph100%30.33 "HgN/A
8:20 PM55 °FPassing clouds.1 mph94%30.30 "HgN/A
7:50 PM57 °FSunny.1 mph94%30.30 "Hg10 mi
7:20 PM63 °FPassing clouds.3 mph83%30.30 "HgN/A
6:50 PM64 °FPartly sunny.2 mph73%30.30 "HgN/A
6:20 PM68 °FScattered clouds.3 mph64%30.30 "HgN/A
5:50 PM68 °FPartly sunny.3 mph64%30.30 "HgN/A
5:20 PM66 °FScattered clouds.3 mph73%30.30 "HgN/A
4:50 PM68 °FScattered clouds.5 mph64%30.30 "HgN/A
4:20 PM68 °FScattered clouds.3 mph69%30.30 "HgN/A
Weather by CustomWeather, © 2014

See weather overviewHow to use our weather pages